sat.trackr.live / text

‹ back to catalog

STARLINK-32932

NORAD 63083 · 2025-037G

PAYLOAD ACTIVE UNKNOWN

§ Identity

Operator
Country
US
Launch date
2025-02-23
Launch site
AFWTR
Launch vehicle
Mass (kg)
RCS (m²)

Purposes: comms

External: N2YO · Heavens-Above · Gunter

§ Orbital elements

Epoch: 2026-05-25T03:30:56.335104Z

Period
96.11 min
Inclination
70.0004°
Eccentricity
0.0003792
Mean motion
14.98326319 rev/d
Perigee alt
569.4 km
Apogee alt
574.7 km
Semi-major
6,950.2 km
B*
3.2616e-4
RAAN
161.7177°
Arg perigee
273.6400°
Mean anomaly
86.4325°
Rev number
6,991

§ Raw data

STARLINK-329321 63083U 25037G   26145.14648536  .00003801  00000+0  32616-3 0  99942 63083  70.0004 161.7177 0003792 273.6400  86.4325 14.98326319 69915

JSON: /api/v1/satellites/63083 · /tle

For live sub-satellite position, see the globe view (requires WebGL).

§ Visibility from observer

Set your observer location to see the next 7 days of passes ≥ 10°. The values pass through the URL so the page stays shareable.

No JS? Fill the form by hand. The geolocation button needs JavaScript.